Welcome to Northern Hawkes Bay. New Zealand.
PWS Header
      nz Flag



Hit Counter


W3C Valid W3C Valid logo


    Wairoa

Select any of the Stations below to visit their websites.










Historic Data from Weather Underground
Select the location of interest below. Wairoa is the default. Please have patience, this Data is slow to load in.
Northern Hawkes Bay Historical Data
Daily Summary for November 8, 2017 Units:  Metric    English   Both
« Previous Day
Next Day »
Daily Weekly Monthly Yearly Custom
  High: Low: Average:
Temperature: 23.3 °C 12.6 °C 18.3 °C
Dew Point: 17.7 °C 5.3 °C 11.2 °C
Humidity: 95% 32% 65%
Wind Speed: 29.4km/h 0.0km/h 9km/h
Wind Gust: 54.1km/h - -
Wind- - SW
Pressure: 1014.1 hPa 1000.6 hPa -
Precipitation: 2.3 mm    
Historical Graphs
 
 
Tabular Data for November 8, 2017
Time Temperature Dew Point Pressure Wind Wind Speed Wind Gust Humidity Rainfall Rate (Hourly) solar
00:01 14.5 °C 7.6 °C 1011.1 hPa North 9.7 km/h 18.3 km/h 63% 0.0 mm 0 W/m2
00:06 15.3 °C 8.3 °C 1010.7 hPa Calm   18.3 km/h 63% 0.0 mm 0 W/m2
00:11 15.5 °C 8.5 °C 1010.7 hPa North 1.1 km/h 18.3 km/h 63% 0.0 mm 0 W/m2
00:16 15.8 °C 8.8 °C 1010.7 hPa NNW 8.7 km/h 35.6 km/h 63% 0.0 mm 0 W/m2
00:21 15.9 °C 8.9 °C 1010.4 hPa NNW 9.7 km/h 35.6 km/h 63% 0.0 mm 0 W/m2
00:26 16.1 °C 8.8 °C 1010.4 hPa NNW 12.2 km/h 28.0 km/h 62% 0.0 mm 0 W/m2
00:31 16.2 °C 8.7 °C 1010.4 hPa NNW 14.8 km/h 31.7 km/h 61% 0.0 mm 0 W/m2
00:36 16.2 °C 8.7 °C 1010.0 hPa NNW 11.1 km/h 31.7 km/h 61% 0.0 mm 0 W/m2
00:41 16.4 °C 8.9 °C 1010.0 hPa NNW 12.2 km/h 35.6 km/h 61% 0.0 mm 0 W/m2
00:46 16.4 °C 8.9 °C 1010.0 hPa NNW 8.7 km/h 35.6 km/h 61% 0.0 mm 0 W/m2
00:51 16.3 °C 8.8 °C 1010.0 hPa NNW 9.7 km/h 24.5 km/h 61% 0.0 mm 0 W/m2
00:56 16.3 °C 8.8 °C 1010.0 hPa North 8.7 km/h 19.5 km/h 61% 0.0 mm 0 W/m2
01:01 16.3 °C 9.0 °C 1009.7 hPa North 12.2 km/h 23.3 km/h 62% 0.0 mm 0 W/m2
01:06 16.4 °C 9.1 °C 1009.7 hPa NNE 13.4 km/h 23.3 km/h 62% 0.0 mm 0 W/m2
01:11 16.5 °C 9.2 °C 1009.7 hPa North 6.1 km/h 23.3 km/h 62% 0.0 mm 0 W/m2
01:16 16.5 °C 9.2 °C 1009.4 hPa North 7.2 km/h 23.3 km/h 62% 0.0 mm 0 W/m2
01:21 16.5 °C 9.2 °C 1009.4 hPa NNW 2.6 km/h 18.3 km/h 62% 0.0 mm 0 W/m2
01:26 16.5 °C 9.2 °C 1009.4 hPa North 15.8 km/h 31.7 km/h 62% 0.0 mm 0 W/m2
01:31 16.6 °C 9.3 °C 1009.0 hPa NNE 7.2 km/h 31.7 km/h 62% 0.0 mm 0 W/m2
01:36 16.7 °C 9.6 °C 1009.0 hPa North 5.0 km/h 25.6 km/h 63% 0.0 mm 0 W/m2
01:41 16.7 °C 9.4 °C 1008.7 hPa North 8.7 km/h 24.5 km/h 62% 0.0 mm 0 W/m2
01:46 16.7 °C 9.4 °C 1008.7 hPa North 1.1 km/h 24.5 km/h 62% 0.0 mm 0 W/m2
01:51 16.9 °C 9.6 °C 1008.7 hPa North 8.7 km/h 21.9 km/h 62% 0.0 mm 0 W/m2
01:56 17.0 °C 9.4 °C 1008.4 hPa North 11.1 km/h 36.7 km/h 61% 0.0 mm 0 W/m2
02:01 17.0 °C 9.4 °C 1008.4 hPa North 19.5 km/h 36.7 km/h 61% 0.0 mm 0 W/m2
02:06 17.2 °C 9.4 °C 1008.0 hPa North 13.4 km/h 40.4 km/h 60% 0.0 mm 0 W/m2
02:25 17.2 °C 9.6 °C 1007.7 hPa North 19.5 km/h 47.9 km/h 61% 0.0 mm 0 W/m2
02:35 17.2 °C 9.9 °C 1007.7 hPa North 17.2 km/h 33.1 km/h 62% 0.0 mm 0 W/m2
02:40 17.2 °C 9.9 °C 1007.3 hPa North 9.7 km/h 41.7 km/h 62% 0.0 mm 0 W/m2
02:45 17.0 °C 9.7 °C 1007.3 hPa North 11.1 km/h 41.7 km/h 62% 0.0 mm 0 W/m2
02:50 16.9 °C 9.8 °C 1007.3 hPa North 11.1 km/h 28.0 km/h 63% 0.0 mm 0 W/m2
03:08 17.0 °C 9.9 °C 1007.0 hPa NNW 18.3 km/h 40.4 km/h 63% 0.0 mm 0 W/m2
03:13 17.0 °C 9.9 °C 1007.0 hPa North 24.5 km/h 40.4 km/h 63% 0.0 mm 0 W/m2
03:18 17.1 °C 10.0 °C 1006.7 hPa NNW 18.3 km/h 35.6 km/h 63% 0.0 mm 0 W/m2
03:23 17.2 °C 10.1 °C 1006.7 hPa NNW 15.8 km/h 39.3 km/h 63% 0.0 mm 0 W/m2
03:28 17.2 °C 10.1 °C 1006.3 hPa NNW 17.2 km/h 39.3 km/h 63% 0.0 mm 0 W/m2
03:33 17.0 °C 10.2 °C 1006.3 hPa North 14.8 km/h 33.1 km/h 64% 0.0 mm 0 W/m2
03:38 17.0 °C 10.4 °C 1006.0 hPa NNW 19.5 km/h 43.9 km/h 65% 0.0 mm 0 W/m2
03:43 17.0 °C 10.6 °C 1005.6 hPa NNW 29.4 km/h 43.9 km/h 66% 0.0 mm 0 W/m2
03:48 17.0 °C 10.8 °C 1005.6 hPa NNE 24.5 km/h 42.8 km/h 67% 0.0 mm 0 W/m2
03:53 16.9 °C 10.9 °C 1005.6 hPa NE 17.2 km/h 42.8 km/h 68% 0.0 mm 0 W/m2
03:58 16.9 °C 11.2 °C 1005.6 hPa NNE 18.3 km/h 40.4 km/h 69% 0.0 mm 0 W/m2
04:03 16.9 °C 11.2 °C 1005.3 hPa North 12.2 km/h 40.4 km/h 69% 0.0 mm 0 W/m2
04:08 16.9 °C 11.4 °C 1005.3 hPa NE 17.2 km/h 35.6 km/h 70% 0.0 mm 0 W/m2
04:13 16.9 °C 11.4 °C 1005.0 hPa ENE 17.2 km/h 35.6 km/h 70% 0.0 mm 0 W/m2
04:18 16.9 °C 11.6 °C 1005.3 hPa NE 25.6 km/h 54.1 km/h 71% 0.0 mm 0 W/m2
04:23 17.0 °C 11.3 °C 1005.0 hPa North 27.0 km/h 54.1 km/h 69% 0.0 mm 0 W/m2
04:28 17.2 °C 11.4 °C 1004.6 hPa North 28.0 km/h 54.1 km/h 69% 0.0 mm 0 W/m2
04:38 17.0 °C 11.7 °C 1004.6 hPa NNE 17.2 km/h 42.8 km/h 71% 0.0 mm 0 W/m2
04:43 17.0 °C 11.7 °C 1004.6 hPa NE 18.3 km/h 35.6 km/h 71% 0.0 mm 0 W/m2
04:48 17.2 °C 11.9 °C 1004.3 hPa NNE 13.4 km/h 34.3 km/h 71% 0.0 mm 0 W/m2
04:53 17.2 °C 11.9 °C 1004.3 hPa North 23.3 km/h 33.1 km/h 71% 0.0 mm 0 W/m2
04:58 17.3 °C 12.0 °C 1004.3 hPa NNE 9.7 km/h 41.7 km/h 71% 0.0 mm 0 W/m2
05:03 17.1 °C 12.0 °C 1003.9 hPa North 5.0 km/h 41.7 km/h 72% 0.0 mm 0 W/m2
05:09 16.9 °C 12.1 °C 1003.9 hPa NNE 7.2 km/h 31.7 km/h 73% 0.0 mm 0 W/m2
05:14 16.9 °C 12.2 °C 1003.6 hPa NE 8.7 km/h 31.7 km/h 74% 0.0 mm 0 W/m2
05:19 16.7 °C 12.1 °C 1003.6 hPa NNE 8.7 km/h 24.5 km/h 74% 0.0 mm 0 W/m2
05:24 16.7 °C 12.3 °C 1003.3 hPa NNE 8.7 km/h 27.0 km/h 75% 0.0 mm 0 W/m2
05:29 16.9 °C 12.4 °C 1003.3 hPa NNE 5.0 km/h 27.0 km/h 75% 0.0 mm 0 W/m2
05:34 16.9 °C 12.4 °C 1003.3 hPa NE 14.8 km/h 27.0 km/h 75% 0.0 mm 0 W/m2
05:39 16.9 °C 12.7 °C 1003.3 hPa NE 14.8 km/h 27.0 km/h 76% 0.0 mm 0 W/m2
05:45 17.0 °C 12.6 °C 1003.3 hPa NE 6.1 km/h 30.6 km/h 75% 0.0 mm 0 W/m2
05:50 16.9 °C 12.7 °C 1002.9 hPa NE 3.5 km/h 30.6 km/h 76% 0.0 mm 0 W/m2
05:55 17.1 °C 12.7 °C 1002.6 hPa NNE 11.1 km/h 28.0 km/h 75% 0.0 mm 0 W/m2
06:00 17.1 °C 12.8 °C 1002.9 hPa NNE 11.1 km/h 28.0 km/h 76% 0.0 mm 0 W/m2
06:05 17.2 °C 12.9 °C 1002.9 hPa NE 14.8 km/h 28.0 km/h 76% 0.0 mm 0 W/m2
06:10 17.4 °C 13.1 °C 1002.6 hPa NE 12.2 km/h 31.7 km/h 76% 0.0 mm 0 W/m2
06:15 17.4 °C 13.1 °C 1002.6 hPa NE 12.2 km/h 31.7 km/h 76% 0.0 mm 2 W/m2
06:20 17.5 °C 13.2 °C 1002.3 hPa ENE 19.5 km/h 34.3 km/h 76% 0.0 mm 7 W/m2
06:25 17.5 °C 13.2 °C 1001.9 hPa ENE 11.1 km/h 34.3 km/h 76% 0.0 mm 14 W/m2
06:30 17.6 °C 13.6 °C 1001.9 hPa ENE 18.3 km/h 39.3 km/h 77% 0.0 mm 12 W/m2
06:40 17.7 °C 13.6 °C 1001.6 hPa NE 7.2 km/h 29.4 km/h 77% 0.0 mm 25 W/m2
06:45 17.8 °C 13.7 °C 1001.6 hPa NE 12.2 km/h 29.4 km/h 77% 0.0 mm 36 W/m2
06:50 18.0 °C 13.7 °C 1001.6 hPa ENE 15.8 km/h 29.4 km/h 76% 0.0 mm 46 W/m2
06:55 18.1 °C 13.8 °C 1001.2 hPa ENE 8.7 km/h 36.7 km/h 76% 0.0 mm 55 W/m2
07:00 18.4 °C 14.1 °C 1001.2 hPa ENE 8.7 km/h 36.7 km/h 76% 0.0 mm 68 W/m2
07:05 18.5 °C 14.0 °C 1000.9 hPa ENE 9.7 km/h 28.0 km/h 75% 0.0 mm 76 W/m2
07:10 18.6 °C 14.1 °C 1000.6 hPa ENE 13.4 km/h 24.5 km/h 75% 0.0 mm 140 W/m2
07:15 18.9 °C 14.4 °C 1000.6 hPa NE 13.4 km/h 25.6 km/h 75% 0.0 mm 104 W/m2
07:20 19.1 °C 14.2 °C 1000.9 hPa NE 8.7 km/h 25.6 km/h 73% 0.0 mm 138 W/m2
07:25 19.5 °C 14.3 °C 1000.9 hPa NE 13.4 km/h 21.9 km/h 72% 0.0 mm 161 W/m2
07:30 20.0 °C 14.4 °C 1001.2 hPa NE 7.2 km/h 21.9 km/h 70% 0.0 mm 89 W/m2
07:35 20.2 °C 14.3 °C 1001.2 hPa NE 5.0 km/h 21.9 km/h 69% 0.0 mm 85 W/m2
07:40 20.8 °C 14.7 °C 1000.9 hPa NNE 23.3 km/h 33.1 km/h 68% 0.0 mm 90 W/m2
07:45 21.2 °C 14.4 °C 1001.2 hPa NNE 11.1 km/h 33.1 km/h 65% 0.0 mm 88 W/m2
07:50 21.4 °C 14.6 °C 1001.2 hPa North 24.5 km/h 50.0 km/h 65% 0.0 mm 81 W/m2
07:55 21.7 °C 14.6 °C 1001.2 hPa NNW 23.3 km/h 50.0 km/h 64% 0.0 mm 90 W/m2
08:00 21.8 °C 14.7 °C 1001.2 hPa North 23.3 km/h 50.0 km/h 64% 0.0 mm 95 W/m2
08:05 21.9 °C 14.8 °C 1001.6 hPa North 17.2 km/h 43.9 km/h 64% 0.0 mm 100 W/m2
08:10 21.9 °C 14.8 °C 1001.6 hPa NW 7.2 km/h 37.8 km/h 64% 0.0 mm 108 W/m2
08:15 21.9 °C 14.8 °C 1001.2 hPa NNW 9.7 km/h 24.5 km/h 64% 0.0 mm 116 W/m2
08:20 22.0 °C 14.9 °C 1001.6 hPa NNW 2.6 km/h 23.3 km/h 64% 0.0 mm 127 W/m2
08:26 22.1 °C 14.7 °C 1001.9 hPa Calm   19.5 km/h 63% 0.0 mm 141 W/m2
08:31 22.3 °C 14.9 °C 1001.9 hPa NW 2.6 km/h 19.5 km/h 63% 0.0 mm 163 W/m2
08:36 22.3 °C 14.9 °C 1001.9 hPa NW 6.1 km/h 19.5 km/h 63% 0.0 mm 205 W/m2
08:37 22.3 °C 14.9 °C 1001.9 hPa NNW 17.2 km/h 20.9 km/h 63% 0.0 mm 197 W/m2
08:42 22.6 °C 15.2 °C 1002.3 hPa NNW 9.7 km/h 20.9 km/h 63% 0.0 mm 208 W/m2
08:47 22.8 °C 15.4 °C 1002.3 hPa NNW 9.7 km/h 34.3 km/h 63% 0.0 mm 146 W/m2
08:52 22.7 °C 15.6 °C 1002.6 hPa NNW 5.0 km/h 34.3 km/h 64% 0.0 mm 173 W/m2
08:57 22.5 °C 15.4 °C 1002.6 hPa NW 5.0 km/h 24.5 km/h 64% 0.0 mm 158 W/m2
09:02 22.3 °C 15.4 °C 1002.6 hPa NNW 6.1 km/h 24.5 km/h 65% 0.0 mm 173 W/m2
09:07 22.2 °C 15.8 °C 1002.9 hPa NNW 9.7 km/h 21.9 km/h 67% 0.0 mm 138 W/m2
09:12 21.7 °C 16.0 °C 1003.3 hPa NW 17.2 km/h 25.6 km/h 70% 0.0 mm 98 W/m2
09:17 21.2 °C 16.2 °C 1003.3 hPa NNW 11.1 km/h 25.6 km/h 73% 0.0 mm 88 W/m2
09:22 20.5 °C 16.1 °C 1003.6 hPa NNW 21.9 km/h 29.4 km/h 76% 0.0 mm 71 W/m2
09:27 20.1 °C 16.3 °C 1003.6 hPa NW 12.2 km/h 29.4 km/h 79% 0.3 mm 86 W/m2
09:32 19.7 °C 16.7 °C 1003.9 hPa NW 8.7 km/h 29.4 km/h 83% 0.3 mm 111 W/m2
09:37 19.4 °C 16.8 °C 1003.9 hPa NW 12.2 km/h 19.5 km/h 85% 0.5 mm 143 W/m2
09:42 19.0 °C 16.8 °C 1003.9 hPa NW 8.7 km/h 18.3 km/h 87% 1.3 mm 161 W/m2
09:47 18.8 °C 17.1 °C 1004.3 hPa NW 5.0 km/h 18.3 km/h 90% 1.5 mm 136 W/m2
09:52 18.6 °C 17.3 °C 1004.6 hPa NW 1.1 km/h 13.4 km/h 92% 1.8 mm 145 W/m2
09:57 18.4 °C 17.4 °C 1004.3 hPa NW 2.6 km/h 17.2 km/h 94% 2.0 mm 128 W/m2
10:02 18.4 °C 17.4 °C 1004.6 hPa NW 7.2 km/h 17.2 km/h 94% 2.3 mm 114 W/m2
10:07 18.5 °C 17.7 °C 1004.6 hPa NW 2.6 km/h 11.1 km/h 95% 2.3 mm 110 W/m2
10:12 18.4 °C 17.4 °C 1004.6 hPa NW 9.7 km/h 17.2 km/h 94% 2.3 mm 100 W/m2
10:17 18.4 °C 17.3 °C 1004.6 hPa NNW 11.1 km/h 25.6 km/h 93% 2.3 mm 94 W/m2
10:22 18.3 °C 16.3 °C 1004.6 hPa NNW 12.2 km/h 30.6 km/h 88% 2.3 mm 108 W/m2
10:27 18.1 °C 15.7 °C 1005.0 hPa NW 9.7 km/h 30.6 km/h 86% 2.0 mm 132 W/m2
10:32 18.1 °C 15.6 °C 1005.3 hPa WNW 6.1 km/h 20.9 km/h 85% 2.0 mm 166 W/m2
10:37 18.2 °C 15.3 °C 1005.3 hPa WNW 6.1 km/h 23.3 km/h 83% 1.8 mm 182 W/m2
10:42 18.3 °C 15.0 °C 1005.0 hPa NW 8.7 km/h 23.3 km/h 81% 1.3 mm 220 W/m2
10:47 18.6 °C 14.7 °C 1005.3 hPa NW 14.8 km/h 19.5 km/h 78% 0.5 mm 208 W/m2
10:52 18.7 °C 14.6 °C 1005.3 hPa NW 8.7 km/h 20.9 km/h 77% 0.5 mm 195 W/m2
10:57 18.9 °C 14.6 °C 1005.6 hPa NW 6.1 km/h 20.9 km/h 76% 0.3 mm 209 W/m2
11:02 19.0 °C 14.5 °C 1005.3 hPa NNW 6.1 km/h 18.3 km/h 75% 0.0 mm 163 W/m2
11:07 19.0 °C 14.7 °C 1005.6 hPa NNW 11.1 km/h 15.8 km/h 76% 0.0 mm 190 W/m2
11:12 18.9 °C 14.4 °C 1005.6 hPa NW 14.8 km/h 21.9 km/h 75% 0.0 mm 202 W/m2
11:17 18.8 °C 13.9 °C 1005.6 hPa NW 11.1 km/h 21.9 km/h 73% 0.0 mm 240 W/m2
11:22 18.9 °C 14.2 °C 1005.6 hPa NW 11.1 km/h 21.9 km/h 74% 0.0 mm 379 W/m2
11:27 19.5 °C 14.6 °C 1005.6 hPa NNW 7.2 km/h 20.9 km/h 73% 0.0 mm 337 W/m2
11:32 19.6 °C 14.0 °C 1005.6 hPa NW 20.9 km/h 29.4 km/h 70% 0.0 mm 346 W/m2
11:37 19.6 °C 13.6 °C 1006.0 hPa WNW 11.1 km/h 29.4 km/h 68% 0.0 mm 425 W/m2
11:42 19.7 °C 13.2 °C 1005.6 hPa NW 14.8 km/h 29.4 km/h 66% 0.0 mm 322 W/m2
11:47 19.7 °C 13.2 °C 1005.6 hPa NNW 18.3 km/h 24.5 km/h 66% 0.0 mm 290 W/m2
11:52 19.4 °C 12.2 °C 1005.6 hPa NW 11.1 km/h 24.5 km/h 63% 0.0 mm 235 W/m2
11:57 19.4 °C 12.4 °C 1005.3 hPa NNW 12.2 km/h 24.5 km/h 64% 0.0 mm 222 W/m2
12:02 19.3 °C 11.8 °C 1005.3 hPa NNW 17.2 km/h 25.6 km/h 62% 0.0 mm 246 W/m2
12:07 19.3 °C 11.1 °C 1005.6 hPa NNW 15.8 km/h 28.0 km/h 59% 0.0 mm 278 W/m2
12:12 19.4 °C 10.9 °C 1005.3 hPa NW 19.5 km/h 30.6 km/h 58% 0.0 mm 348 W/m2
12:17 19.8 °C 11.3 °C 1005.0 hPa NW 19.5 km/h 34.3 km/h 58% 0.0 mm 736 W/m2
12:22 20.1 °C 10.5 °C 1005.3 hPa NW 21.9 km/h 35.6 km/h 54% 0.0 mm 700 W/m2
12:27 20.3 °C 10.7 °C 1005.3 hPa NW 20.9 km/h 35.6 km/h 54% 0.0 mm 646 W/m2
12:32 20.3 °C 10.4 °C 1005.3 hPa NW 21.9 km/h 31.7 km/h 53% 0.0 mm 714 W/m2
12:37 20.8 °C 11.2 °C 1005.3 hPa NW 19.5 km/h 31.7 km/h 54% 0.0 mm 813 W/m2
12:42 21.1 °C 10.6 °C 1005.6 hPa NNW 15.8 km/h 30.6 km/h 51% 0.0 mm 677 W/m2
12:47 21.1 °C 9.7 °C 1005.6 hPa NW 12.2 km/h 30.6 km/h 48% 0.0 mm 507 W/m2
12:52 20.9 °C 9.5 °C 1005.3 hPa NNW 19.5 km/h 29.4 km/h 48% 0.0 mm 561 W/m2
12:57 20.8 °C 10.0 °C 1005.6 hPa NNW 9.7 km/h 31.7 km/h 50% 0.0 mm 558 W/m2
13:02 21.2 °C 9.8 °C 1005.3 hPa NNW 12.2 km/h 31.7 km/h 48% 0.0 mm 837 W/m2
13:07 21.4 °C 9.3 °C 1005.6 hPa NNW 7.2 km/h 27.0 km/h 46% 0.0 mm 889 W/m2
13:17 21.6 °C 9.8 °C 1005.6 hPa NW 9.7 km/h 27.0 km/h 47% 0.0 mm 526 W/m2
13:22 21.7 °C 9.3 °C 1005.6 hPa NW 8.7 km/h 27.0 km/h 45% 0.0 mm 567 W/m2
13:27 21.4 °C 8.7 °C 1005.6 hPa NNW 12.2 km/h 21.9 km/h 44% 0.0 mm 357 W/m2
13:32 21.1 °C 8.7 °C 1005.6 hPa NW 18.3 km/h 21.9 km/h 45% 0.0 mm 474 W/m2
13:37 21.2 °C 8.5 °C 1006.0 hPa NW 19.5 km/h 30.6 km/h 44% 0.0 mm 603 W/m2
13:42 21.3 °C 8.2 °C 1005.6 hPa NW 24.5 km/h 33.1 km/h 43% 0.0 mm 701 W/m2
13:47 21.3 °C 8.2 °C 1005.6 hPa NW 14.8 km/h 33.1 km/h 43% 0.0 mm 776 W/m2
13:52 21.5 °C 8.1 °C 1005.3 hPa NW 15.8 km/h 33.1 km/h 42% 0.0 mm 431 W/m2
13:57 21.4 °C 8.3 °C 1005.6 hPa NW 18.3 km/h 34.3 km/h 43% 0.0 mm 546 W/m2
14:02 21.2 °C 7.4 °C 1005.3 hPa NW 12.2 km/h 35.6 km/h 41% 0.0 mm 387 W/m2
14:07 21.3 °C 7.9 °C 1006.0 hPa NW 17.2 km/h 35.6 km/h 42% 0.0 mm 515 W/m2
14:28 21.8 °C 8.3 °C 1006.3 hPa NW 9.7 km/h 18.3 km/h 42% 0.0 mm 316 W/m2
14:33 21.4 °C 7.9 °C 1006.0 hPa NW 12.2 km/h 21.9 km/h 42% 0.0 mm 369 W/m2
14:38 21.4 °C 7.9 °C 1005.3 hPa NW 19.5 km/h 31.7 km/h 42% 0.0 mm 322 W/m2
14:43 21.2 °C 7.8 °C 1005.3 hPa NW 17.2 km/h 31.7 km/h 42% 0.0 mm 253 W/m2
14:48 20.8 °C 7.1 °C 1005.0 hPa NW 21.9 km/h 36.7 km/h 41% 0.0 mm 242 W/m2
14:58 20.6 °C 6.2 °C 1005.6 hPa NNW 3.5 km/h 31.7 km/h 39% 0.0 mm 257 W/m2
15:03 20.9 °C 6.8 °C 1006.0 hPa WNW 8.7 km/h 21.9 km/h 40% 0.0 mm 295 W/m2
15:08 21.0 °C 6.2 °C 1006.0 hPa NW 5.0 km/h 21.9 km/h 38% 0.0 mm 365 W/m2
15:13 21.5 °C 6.2 °C 1006.3 hPa NNW 13.4 km/h 27.0 km/h 37% 0.0 mm 483 W/m2
15:18 21.9 °C 6.6 °C 1006.3 hPa NW 21.9 km/h 31.7 km/h 37% 0.0 mm 411 W/m2
15:23 21.6 °C 5.9 °C 1006.0 hPa NW 18.3 km/h 31.7 km/h 36% 0.0 mm 420 W/m2
15:28 21.9 °C 6.6 °C 1006.0 hPa NW 15.8 km/h 30.6 km/h 37% 0.0 mm 526 W/m2
15:33 21.7 °C 6.0 °C 1006.0 hPa NW 13.4 km/h 29.4 km/h 36% 0.0 mm 422 W/m2
15:39 21.7 °C 7.2 °C 1006.0 hPa NW 14.8 km/h 29.4 km/h 39% 0.0 mm 468 W/m2
15:44 21.8 °C 6.1 °C 1006.3 hPa NW 13.4 km/h 27.0 km/h 36% 0.0 mm 266 W/m2
15:49 22.1 °C 6.7 °C 1006.7 hPa NW 1.1 km/h 27.0 km/h 37% 0.0 mm 539 W/m2
15:54 22.6 °C 5.9 °C 1006.7 hPa NW 5.0 km/h 18.3 km/h 34% 0.0 mm 479 W/m2
15:59 22.6 °C 6.8 °C 1006.7 hPa NW 7.2 km/h 19.5 km/h 36% 0.0 mm 500 W/m2
16:04 22.5 °C 6.3 °C 1006.7 hPa NNW 11.1 km/h 19.5 km/h 35% 0.0 mm 416 W/m2
16:09 22.5 °C 6.3 °C 1006.7 hPa NNW 12.2 km/h 23.3 km/h 35% 0.0 mm 461 W/m2
16:14 22.4 °C 5.3 °C 1006.7 hPa NW 13.4 km/h 23.3 km/h 33% 0.0 mm 479 W/m2
16:19 22.6 °C 5.5 °C 1006.7 hPa NW 14.8 km/h 21.9 km/h 33% 0.0 mm 471 W/m2
16:23 22.6 °C 5.5 °C 1007.0 hPa NW 8.7 km/h 21.9 km/h 33% 0.0 mm 453 W/m2
16:28 22.7 °C 5.6 °C 1007.0 hPa NW 7.2 km/h 21.9 km/h 33% 0.0 mm 445 W/m2
16:33 23.2 °C 6.9 °C 1007.3 hPa NNW 6.1 km/h 17.2 km/h 35% 0.0 mm 432 W/m2
16:38 23.2 °C 6.9 °C 1007.3 hPa NW 12.2 km/h 14.8 km/h 35% 0.0 mm 427 W/m2
16:43 22.8 °C 5.7 °C 1007.0 hPa NW 5.0 km/h 18.3 km/h 33% 0.0 mm 411 W/m2
16:48 22.9 °C 5.3 °C 1007.3 hPa NW 6.1 km/h 20.9 km/h 32% 0.0 mm 389 W/m2
16:53 23.1 °C 6.8 °C 1007.3 hPa NW 12.2 km/h 20.9 km/h 35% 0.0 mm 396 W/m2
16:58 22.9 °C 5.8 °C 1007.0 hPa NW 6.1 km/h 18.3 km/h 33% 0.0 mm 271 W/m2
17:03 23.0 °C 7.2 °C 1007.3 hPa NW 3.5 km/h 19.5 km/h 36% 0.0 mm 256 W/m2
17:08 23.2 °C 6.9 °C 1007.3 hPa NW 3.5 km/h 19.5 km/h 35% 0.0 mm 360 W/m2
17:13 23.3 °C 7.0 °C 1007.7 hPa WNW 1.1 km/h 19.5 km/h 35% 0.0 mm 154 W/m2
17:18 22.2 °C 8.3 °C 1008.0 hPa SW 5.0 km/h 12.2 km/h 41% 0.0 mm 143 W/m2
17:23 20.6 °C 9.8 °C 1007.7 hPa Calm   19.5 km/h 50% 0.0 mm 89 W/m2
17:28 20.3 °C 10.4 °C 1007.7 hPa SSE 2.6 km/h 19.5 km/h 53% 0.0 mm 283 W/m2
17:33 21.3 °C 11.1 °C 1007.7 hPa South 1.1 km/h 11.1 km/h 52% 0.0 mm 272 W/m2
17:38 21.7 °C 10.8 °C 1008.0 hPa SSW 5.0 km/h 12.2 km/h 50% 0.0 mm 262 W/m2
17:43 21.7 °C 11.4 °C 1008.0 hPa Calm   12.2 km/h 52% 0.0 mm 248 W/m2
17:48 21.9 °C 11.9 °C 1008.4 hPa South 2.6 km/h 11.1 km/h 53% 0.0 mm 237 W/m2
17:53 21.7 °C 12.6 °C 1008.4 hPa SSE 5.0 km/h 11.1 km/h 56% 0.0 mm 237 W/m2
18:03 20.0 °C 10.4 °C 1008.0 hPa SSW 3.5 km/h 21.9 km/h 54% 0.0 mm 153 W/m2
18:08 19.8 °C 9.7 °C 1008.0 hPa SW 1.1 km/h 13.4 km/h 52% 0.0 mm 120 W/m2
18:13 20.0 °C 8.9 °C 1008.7 hPa WSW 5.0 km/h 13.4 km/h 49% 0.0 mm 192 W/m2
18:19 19.9 °C 9.2 °C 1009.0 hPa WSW 1.1 km/h 8.7 km/h 50% 0.0 mm 128 W/m2
18:24 20.0 °C 10.2 °C 1009.0 hPa SW 7.2 km/h 11.1 km/h 53% 0.0 mm 128 W/m2
18:29 19.5 °C 11.6 °C 1009.0 hPa South 3.5 km/h 19.5 km/h 60% 0.0 mm 91 W/m2
18:34 18.9 °C 12.4 °C 1009.0 hPa Calm   19.5 km/h 66% 0.0 mm 65 W/m2
18:39 18.2 °C 11.8 °C 1008.7 hPa Calm   13.4 km/h 66% 0.0 mm 44 W/m2
18:44 17.9 °C 11.2 °C 1009.0 hPa Calm   1.1 km/h 65% 0.0 mm 44 W/m2
18:49 18.0 °C 11.8 °C 1009.4 hPa SE 2.6 km/h 7.2 km/h 67% 0.0 mm 59 W/m2
18:54 17.7 °C 12.2 °C 1009.7 hPa ESE 2.6 km/h 17.2 km/h 70% 0.0 mm 45 W/m2
18:59 17.5 °C 12.2 °C 1009.7 hPa Calm   17.2 km/h 71% 0.0 mm 46 W/m2
19:04 17.5 °C 12.0 °C 1009.7 hPa Calm   7.2 km/h 70% 0.0 mm 45 W/m2
19:09 17.3 °C 11.8 °C 1009.7 hPa ESE 1.1 km/h 7.2 km/h 70% 0.0 mm 37 W/m2
19:14 16.8 °C 11.3 °C 1010.0 hPa East 6.1 km/h 18.3 km/h 70% 0.0 mm 42 W/m2
19:19 16.6 °C 11.1 °C 1010.0 hPa ESE 6.1 km/h 18.3 km/h 70% 0.0 mm 26 W/m2
19:24 16.5 °C 11.2 °C 1010.0 hPa Calm   18.3 km/h 71% 0.0 mm 19 W/m2
19:29 16.4 °C 11.1 °C 1010.4 hPa Calm   8.7 km/h 71% 0.0 mm 16 W/m2
19:34 16.2 °C 11.2 °C 1010.4 hPa East 5.0 km/h 11.1 km/h 72% 0.0 mm 11 W/m2
19:39 16.0 °C 10.9 °C 1010.4 hPa East 1.1 km/h 11.1 km/h 72% 0.0 mm 9 W/m2
19:44 16.0 °C 10.8 °C 1010.4 hPa Calm   9.7 km/h 71% 0.0 mm 5 W/m2
20:00 15.7 °C 10.9 °C 1010.7 hPa Calm   9.7 km/h 73% 0.0 mm 0 W/m2
20:05 15.6 °C 10.8 °C 1010.7 hPa Calm   5.0 km/h 73% 0.0 mm 0 W/m2
20:10 15.5 °C 10.9 °C 1010.7 hPa Calm     74% 0.0 mm 0 W/m2
20:15 15.3 °C 10.9 °C 1011.1 hPa Calm   6.1 km/h 75% 0.0 mm 0 W/m2
20:20 15.3 °C 10.7 °C 1010.7 hPa Calm   6.1 km/h 74% 0.0 mm 0 W/m2
20:25 15.1 °C 10.5 °C 1011.1 hPa Calm   5.0 km/h 74% 0.0 mm 0 W/m2
20:30 15.1 °C 10.5 °C 1011.4 hPa Calm   1.1 km/h 74% 0.0 mm 0 W/m2
20:35 15.0 °C 10.6 °C 1011.4 hPa Calm   2.6 km/h 75% 0.0 mm 0 W/m2
20:40 15.0 °C 10.8 °C 1011.4 hPa Calm   2.6 km/h 76% 0.0 mm 0 W/m2
20:45 15.0 °C 11.0 °C 1011.4 hPa Calm   2.6 km/h 77% 0.0 mm 0 W/m2
20:50 15.0 °C 11.0 °C 1011.4 hPa Calm   1.1 km/h 77% 0.0 mm 0 W/m2
20:55 15.0 °C 11.2 °C 1011.7 hPa Calm   2.6 km/h 78% 0.0 mm 0 W/m2
21:00 15.0 °C 11.2 °C 1011.7 hPa East 1.1 km/h 7.2 km/h 78% 0.0 mm 0 W/m2
21:05 15.2 °C 11.0 °C 1011.7 hPa Calm   7.2 km/h 76% 0.0 mm 0 W/m2
21:10 15.1 °C 10.7 °C 1011.7 hPa Calm   2.6 km/h 75% 0.0 mm 0 W/m2
21:15 15.0 °C 10.6 °C 1012.1 hPa Calm   1.1 km/h 75% 0.0 mm 0 W/m2
21:20 15.1 °C 10.9 °C 1012.1 hPa Calm   6.1 km/h 76% 0.0 mm 0 W/m2
21:25 15.2 °C 11.0 °C 1012.1 hPa Calm   6.1 km/h 76% 0.0 mm 0 W/m2
21:30 15.1 °C 10.7 °C 1012.1 hPa Calm   1.1 km/h 75% 0.0 mm 0 W/m2
21:35 14.9 °C 10.9 °C 1012.1 hPa Calm     77% 0.0 mm 0 W/m2
21:40 14.7 °C 10.9 °C 1012.4 hPa Calm     78% 0.0 mm 0 W/m2
21:45 14.5 °C 10.9 °C 1012.4 hPa Calm     79% 0.0 mm 0 W/m2
21:50 14.4 °C 11.0 °C 1012.4 hPa Calm     80% 0.0 mm 0 W/m2
21:55 14.2 °C 10.8 °C 1012.8 hPa Calm     80% 0.0 mm 0 W/m2
22:00 14.0 °C 10.6 °C 1012.8 hPa Calm     80% 0.0 mm 0 W/m2
22:05 13.9 °C 11.1 °C 1012.8 hPa Calm     83% 0.0 mm 0 W/m2
22:10 13.9 °C 11.2 °C 1012.8 hPa Calm     84% 0.0 mm 0 W/m2
22:15 13.7 °C 11.2 °C 1013.1 hPa Calm     85% 0.0 mm 0 W/m2
22:20 13.6 °C 11.1 °C 1013.1 hPa Calm     85% 0.0 mm 0 W/m2
22:25 13.5 °C 11.1 °C 1013.1 hPa Calm     85% 0.0 mm 0 W/m2
22:30 13.5 °C 11.2 °C 1012.8 hPa Calm     86% 0.0 mm 0 W/m2
22:35 13.4 °C 11.1 °C 1013.1 hPa Calm     86% 0.0 mm 0 W/m2
22:40 13.3 °C 11.0 °C 1013.1 hPa Calm     86% 0.0 mm 0 W/m2
22:45 13.2 °C 11.1 °C 1013.1 hPa Calm     87% 0.0 mm 0 W/m2
22:50 13.2 °C 11.3 °C 1013.1 hPa Calm     88% 0.0 mm 0 W/m2
22:55 13.1 °C 11.3 °C 1013.4 hPa Calm   1.1 km/h 89% 0.0 mm 0 W/m2
23:00 13.0 °C 11.2 °C 1013.4 hPa Calm   1.1 km/h 89% 0.0 mm 0 W/m2
23:05 12.9 °C 11.3 °C 1013.4 hPa Calm   1.1 km/h 90% 0.0 mm 0 W/m2
23:10 13.0 °C 11.4 °C 1013.4 hPa Calm     90% 0.0 mm 0 W/m2
23:15 12.8 °C 11.4 °C 1013.4 hPa Calm     91% 0.0 mm 0 W/m2
23:20 12.8 °C 11.4 °C 1013.8 hPa Calm     91% 0.0 mm 0 W/m2
23:25 12.8 °C 11.4 °C 1013.8 hPa Calm   1.1 km/h 91% 0.0 mm 0 W/m2
23:30 12.8 °C 11.6 °C 1013.8 hPa Calm   1.1 km/h 92% 0.0 mm 0 W/m2
23:35 12.8 °C 11.6 °C 1014.1 hPa Calm   1.1 km/h 92% 0.0 mm 0 W/m2
23:40 12.7 °C 11.4 °C 1014.1 hPa Calm   1.1 km/h 92% 0.0 mm 0 W/m2
23:45 12.7 °C 11.4 °C 1014.1 hPa Calm     92% 0.0 mm 0 W/m2
23:55 12.6 °C 11.2 °C 1014.1 hPa Calm     91% 0.0 mm 0 W/m2
Northern Hawkes Bay. New Zealand Historic Data
Compliments of Weather Underground - 2 mb